TimeCDT,TemperatureF,Dew PointF,Humidity,Sea Level PressureIn,VisibilityMPH,Wind Direction,Wind SpeedMPH,Gust SpeedMPH,PrecipitationIn,Events,Conditions,WindDirDegrees,DateUTC
12:15 AM,19.4,15.6,85,30.00,4.0,NW,10.4,-,N/A,,Overcast,310,2013-03-21 05:15:00
12:35 AM,19.2,16.3,89,30.00,10.0,WNW,6.9,-,N/A,,Overcast,290,2013-03-21 05:35:00
12:55 AM,19.4,14.9,83,29.99,10.0,NW,12.7,-,N/A,,Overcast,310,2013-03-21 05:55:00
1:15 AM,19.4,11.5,71,29.99,10.0,NW,9.2,17.3,N/A,,Overcast,310,2013-03-21 06:15:00
1:35 AM,18.9,11.8,74,29.99,10.0,WNW,9.2,-,N/A,,Scattered Clouds,300,2013-03-21 06:35:00
1:55 AM,18.5,11.7,75,29.99,7.0,WNW,8.1,-,N/A,,Scattered Clouds,300,2013-03-21 06:55:00
2:15 AM,18.3,12.2,77,29.98,10.0,WNW,8.1,-,N/A,,Scattered Clouds,300,2013-03-21 07:15:00
2:35 AM,17.8,12.4,79,29.98,10.0,WNW,6.9,-,N/A,,Clear,300,2013-03-21 07:35:00
2:55 AM,17.8,12.0,78,29.98,10.0,WNW,8.1,-,N/A,,Clear,300,2013-03-21 07:55:00
3:15 AM,18.0,11.8,77,29.98,10.0,West,4.6,-,N/A,,Clear,280,2013-03-21 08:15:00
3:35 AM,17.6,11.8,78,29.98,10.0,West,6.9,-,N/A,,Clear,270,2013-03-21 08:35:00
3:55 AM,17.2,12.0,80,29.97,10.0,West,6.9,-,N/A,,Clear,280,2013-03-21 08:55:00
4:15 AM,17.1,13.1,84,29.97,10.0,West,8.1,-,N/A,,Clear,270,2013-03-21 09:15:00
4:35 AM,16.7,12.7,84,29.97,10.0,West,9.2,-,N/A,,Clear,260,2013-03-21 09:35:00
4:55 AM,16.5,9.7,74,29.97,10.0,West,9.2,-,N/A,,Clear,270,2013-03-21 09:55:00
5:15 AM,16.2,9.0,73,29.97,10.0,West,9.2,-,N/A,,Clear,280,2013-03-21 10:15:00
5:35 AM,16.3,10.0,76,29.97,10.0,West,9.2,-,N/A,,Clear,270,2013-03-21 10:35:00
5:55 AM,16.3,10.2,77,29.98,10.0,West,10.4,-,N/A,,Clear,270,2013-03-21 10:55:00
6:15 AM,16.5,9.9,75,29.98,10.0,West,9.2,-,N/A,,Clear,270,2013-03-21 11:15:00
6:35 AM,16.2,9.0,73,29.98,10.0,West,9.2,-,N/A,,Clear,270,2013-03-21 11:35:00
6:55 AM,15.6,8.4,73,29.98,10.0,West,9.2,-,N/A,,Clear,260,2013-03-21 11:55:00
7:15 AM,15.3,8.4,74,29.98,10.0,West,10.4,-,N/A,,Clear,260,2013-03-21 12:15:00
7:35 AM,15.4,8.6,74,29.99,10.0,West,8.1,-,N/A,,Clear,260,2013-03-21 12:35:00
7:55 AM,16.0,9.1,74,29.99,10.0,West,9.2,-,N/A,,Clear,270,2013-03-21 12:55:00
8:15 AM,16.9,9.9,74,29.99,10.0,West,8.1,-,N/A,,Clear,270,2013-03-21 13:15:00
8:35 AM,18.1,10.6,72,30.00,10.0,WNW,9.2,-,N/A,,Clear,290,2013-03-21 13:35:00
8:55 AM,19.6,11.3,70,30.00,10.0,WNW,9.2,-,N/A,,Clear,300,2013-03-21 13:55:00
9:15 AM,21.0,12.4,69,30.00,10.0,NW,9.2,-,N/A,,Clear,310,2013-03-21 14:15:00
9:35 AM,22.5,12.7,66,30.00,10.0,WNW,10.4,-,N/A,,Clear,290,2013-03-21 14:35:00
9:55 AM,23.4,12.7,64,30.00,10.0,NW,10.4,-,N/A,,Clear,310,2013-03-21 14:55:00
10:15 AM,24.6,12.2,59,30.01,10.0,West,10.4,-,N/A,,Clear,280,2013-03-21 15:15:00
10:35 AM,25.3,10.8,54,30.01,10.0,WNW,10.4,16.1,N/A,,Clear,290,2013-03-21 15:35:00
10:55 AM,25.5,9.7,51,30.02,10.0,West,10.4,19.6,N/A,,Clear,280,2013-03-21 15:55:00
11:15 AM,26.2,9.9,50,30.01,10.0,NW,10.4,16.1,N/A,,Clear,310,2013-03-21 16:15:00
11:35 AM,26.8,9.1,47,30.02,10.0,West,12.7,16.1,N/A,,Clear,280,2013-03-21 16:35:00
11:55 AM,27.7,9.0,45,30.02,10.0,West,12.7,19.6,N/A,,Clear,280,2013-03-21 16:55:00
12:15 PM,28.4,8.8,44,30.01,10.0,West,8.1,16.1,N/A,,Clear,260,2013-03-21 17:15:00
12:35 PM,28.9,9.3,44,30.01,10.0,West,11.5,17.3,N/A,,Clear,270,2013-03-21 17:35:00
12:55 PM,29.8,9.7,43,30.01,10.0,NW,9.2,-,N/A,,Clear,310,2013-03-21 17:55:00
1:15 PM,30.6,9.1,41,30.01,10.0,WSW,8.1,16.1,N/A,,Clear,250,2013-03-21 18:15:00
1:35 PM,31.1,8.6,39,30.00,10.0,NNW,6.9,17.3,N/A,,Clear,340,2013-03-21 18:35:00
1:55 PM,31.8,9.7,40,30.00,10.0,WNW,12.7,18.4,N/A,,Clear,290,2013-03-21 18:55:00
2:15 PM,32.0,9.3,39,29.99,10.0,West,10.4,16.1,N/A,,Clear,270,2013-03-21 19:15:00
2:35 PM,32.0,9.1,38,29.98,10.0,WNW,8.1,17.3,N/A,,Clear,300,2013-03-21 19:35:00
2:55 PM,32.5,9.9,39,29.98,10.0,West,12.7,19.6,N/A,,Clear,280,2013-03-21 19:55:00
3:15 PM,32.9,11.3,41,29.98,10.0,NW,11.5,19.6,N/A,,Clear,320,2013-03-21 20:15:00
3:35 PM,32.9,12.6,43,29.98,10.0,NNW,13.8,17.3,N/A,,Clear,330,2013-03-21 20:35:00
3:55 PM,32.9,12.6,43,29.98,10.0,NNW,11.5,17.3,N/A,,Clear,340,2013-03-21 20:55:00
4:15 PM,32.7,12.4,43,29.98,10.0,NNW,12.7,18.4,N/A,,Clear,330,2013-03-21 21:15:00
4:35 PM,32.4,12.7,44,29.98,10.0,NNW,12.7,-,N/A,,Clear,340,2013-03-21 21:35:00
4:55 PM,32.4,12.7,44,29.98,10.0,NW,9.2,-,N/A,,Clear,320,2013-03-21 21:55:00
5:35 PM,32.0,11.7,43,29.98,10.0,North,8.1,-,N/A,,Clear,350,2013-03-21 22:35:00
5:55 PM,32.0,12.7,45,29.98,10.0,NNW,9.2,-,N/A,,Clear,340,2013-03-21 22:55:00
6:15 PM,31.5,13.5,47,29.98,10.0,NNW,11.5,-,N/A,,Clear,340,2013-03-21 23:15:00
6:35 PM,30.6,13.6,50,29.98,10.0,North,8.1,-,N/A,,Clear,350,2013-03-21 23:35:00
6:55 PM,29.3,13.8,53,29.98,10.0,NNW,8.1,-,N/A,,Clear,340,2013-03-21 23:55:00
7:15 PM,27.9,14.7,58,29.98,10.0,NNW,6.9,-,N/A,,Clear,340,2013-03-22 00:15:00
7:35 PM,25.9,15.8,66,29.98,10.0,NNW,4.6,-,N/A,,Clear,330,2013-03-22 00:35:00
8:15 PM,24.8,16.5,71,29.99,10.0,North,5.8,-,N/A,,Clear,360,2013-03-22 01:15:00
8:35 PM,23.4,16.7,76,30.00,10.0,North,5.8,-,N/A,,Clear,360,2013-03-22 01:35:00
8:55 PM,23.2,17.1,77,30.00,10.0,North,4.6,-,N/A,,Clear,10,2013-03-22 01:55:00
9:15 PM,22.6,16.2,76,30.00,10.0,NNE,4.6,-,N/A,,Clear,20,2013-03-22 02:15:00
9:35 PM,22.8,16.0,75,30.01,10.0,Calm,Calm,-,N/A,,Clear,0,2013-03-22 02:35:00
9:55 PM,23.2,17.4,79,30.01,10.0,Calm,Calm,-,N/A,,Clear,0,2013-03-22 02:55:00
10:15 PM,22.8,19.2,86,30.01,10.0,Calm,Calm,-,N/A,,Clear,0,2013-03-22 03:15:00
10:35 PM,22.8,19.8,88,30.01,10.0,Calm,Calm,-,N/A,,Clear,0,2013-03-22 03:35:00
10:55 PM,22.3,19.4,89,30.01,10.0,WSW,4.6,-,N/A,,Clear,240,2013-03-22 03:55:00
11:15 PM,21.9,19.4,90,30.02,10.0,WSW,3.5,-,N/A,,Clear,250,2013-03-22 04:15:00
11:35 PM,21.6,19.2,91,30.02,10.0,SW,4.6,-,N/A,,Clear,230,2013-03-22 04:35:00
11:55 PM,21.2,19.0,91,30.02,10.0,WSW,4.6,-,N/A,,Clear,250,2013-03-22 04:55:00